This is the latest recevied weather packets stored in our database for station/object JH0KSP-13. If no packets are shown the sender has not sent any weather packets the latest 10 day(s).
| Time | Temp. | Humidity | Pressure | Rain* | Wind** | Luminosity | Snow |
|---|---|---|---|---|---|---|---|
| 1777267856 | 16.11° C | 83% | 1006.7 hPa | 0 mm | - | - | - |
| 1777266656 | 16.11° C | 87% | 1006.5 hPa | 0 mm | - | - | - |
| 1777266008 | 16.11° C | 88% | 1006.4 hPa | 0 mm | - | - | - |
| 1777265457 | 16.11° C | 88% | 1006.2 hPa | 0 mm | - | - | - |
| 1777265408 | 16.11° C | 88% | 1006.2 hPa | 0 mm | - | - | - |
| 1777264808 | 16.11° C | 90% | 1006.3 hPa | 0 mm | - | - | - |
| 1777264257 | 16.11° C | 89% | 1006.3 hPa | 0 mm | - | - | - |
| 1777264208 | 16.11° C | 89% | 1006.3 hPa | 0 mm | - | - | - |
| 1777263608 | 16.11° C | 94% | 1006.3 hPa | 0 mm | - | - | - |
| 1777263056 | 16.11° C | 93% | 1006.4 hPa | 0 mm | - | - | - |
| 1777263008 | 16.11° C | 93% | 1006.4 hPa | 0 mm | - | - | - |
| 1777262409 | 16.11° C | 94% | 1006.2 hPa | 0 mm | - | - | - |
| 1777261855 | 16.11° C | 94% | 1006.3 hPa | 0 mm | - | - | - |
| 1777260657 | 15° C | 94% | 1006.4 hPa | 0 mm | - | - | - |
| 1777260608 | 15° C | 94% | 1006.4 hPa | 0 mm | - | - | - |
| 1777260008 | 16.11° C | 94% | 1006.4 hPa | 0 mm | - | - | - |
| 1777259457 | 16.11° C | 94% | 1006.3 hPa | 0 mm | - | - | - |
| 1777259408 | 16.11° C | 95% | 1006.3 hPa | 0 mm | - | - | - |
| 1777258256 | 15° C | 96% | 1006.5 hPa | 0 mm | - | - | - |
| 1777255856 | 13.89° C | 100% | 1006.6 hPa | 0 mm | - | - | - |
| 1777254657 | 12.78° C | 100% | 1006.8 hPa | 0 mm | - | - | - |
| 1777254608 | 12.78° C | 100% | 1006.8 hPa | 0 mm | - | - | - |
* Rain latest hour (hover to see other rain measurements)
** Current wind speed in m/s (hover to see current wind gust speed)